• In Hungary
  • List of Countries
  • For 7 days
  • Water Temperature
  • Satellite Maps
  • Weather Map
  • News
  • Weather Widgets
  • user-avatar
    Login

    Hourly Weather Perelisky

    Today, 20 January, Saturday

    Time Temperature Precipitation Wind Pressure Humidity
    00:00 -4°C° 0 mm 3 mps 726 mmHg 85%
    01:00 -4°C° 0 mm 3 mps 727 mmHg 85%
    02:00 -4°C° 0 mm 3 mps 727 mmHg 86%
    03:00 -4°C° 0 mm 3 mps 727 mmHg 87%
    04:00 -4°C° 0 mm 2 mps 727 mmHg 88%
    05:00 -4°C° 0 mm 2 mps 727 mmHg 89%
    06:00 -4°C° 0 mm 2 mps 728 mmHg 90%
    07:00 -4°C° 0 mm 2 mps 728 mmHg 90%
    08:00 -5°C° 0 mm 2 mps 728 mmHg 91%
    09:00 -4°C° 0 mm 2 mps 728 mmHg 88%
    10:00 -3°C° 0 mm 2 mps 728 mmHg 85%
    11:00 -3°C° 0 mm 2 mps 728 mmHg 82%
    12:00 -2°C° 0 mm 2 mps 728 mmHg 81%
    13:00 -2°C° 0 mm 2 mps 728 mmHg 79%
    14:00 +1°C° 0 mm 1 mps 728 mmHg 77%
    15:00 0°C° 0 mm 1 mps 728 mmHg 80%
    16:00 -1°C° 0 mm 1 mps 728 mmHg 83%
    17:00 -2°C° 0 mm 1 mps 728 mmHg 87%
    18:00 -2°C° 0 mm 1 mps 728 mmHg 87%
    19:00 -2°C° 0 mm 1 mps 727 mmHg 88%
    20:00 -2°C° 0 mm 1 mps 727 mmHg 88%
    21:00 -2°C° 0 mm 1 mps 727 mmHg 89%
    22:00 -3°C° 0 mm 1 mps 727 mmHg 89%
    23:00 -4°C° 0 mm 0 mps 727 mmHg 89%

    Tomorrow, 21 January, Sunday

    Time Temperature Precipitation Wind Pressure Humidity
    00:00 -3°C° 0 mm 1 mps 727 mmHg 89%
    01:00 -3°C° 0 mm 1 mps 727 mmHg 89%
    02:00 -3°C° 0 mm 1 mps 727 mmHg 88%
    03:00 -3°C° 0 mm 1 mps 727 mmHg 89%
    04:00 -3°C° 0 mm 1 mps 727 mmHg 89%
    05:00 -3°C° 0 mm 1 mps 727 mmHg 89%
    06:00 -3°C° 0 mm 1 mps 727 mmHg 89%
    07:00 -6°C° 0 mm 2 mps 727 mmHg 89%
    08:00 -6°C° 0 mm 2 mps 727 mmHg 90%
    09:00 -5°C° 0 mm 2 mps 727 mmHg 87%
    10:00 -5°C° 0 mm 3 mps 727 mmHg 84%
    11:00 -4°C° 0 mm 3 mps 728 mmHg 80%
    12:00 -4°C° 0 mm 3 mps 728 mmHg 79%
    13:00 -2°C° 0 mm 2 mps 727 mmHg 77%
    14:00 -2°C° 0 mm 2 mps 727 mmHg 76%
    15:00 -3°C° 0 mm 2 mps 727 mmHg 80%
    16:00 -3°C° 0 mm 2 mps 727 mmHg 84%
    17:00 -5°C° 0 mm 3 mps 727 mmHg 88%
    18:00 -5°C° 0 mm 3 mps 727 mmHg 88%
    19:00 -5°C° 0 mm 3 mps 727 mmHg 88%
    20:00 -5°C° 0 mm 3 mps 728 mmHg 87%
    21:00 -5°C° 0 mm 3 mps 728 mmHg 86%
    22:00 -5°C° 0 mm 4 mps 728 mmHg 85%
    23:00 -5°C° 0 mm 4 mps 728 mmHg 85%

    Day after tomorrow, 22 January, Monday

    Time Temperature Precipitation Wind Pressure Humidity
    00:00 -5°C° 0 mm 4 mps 728 mmHg 84%
    01:00 -7°C° 0 mm 4 mps 728 mmHg 84%
    02:00 -6°C° 0 mm 3 mps 728 mmHg 83%
    03:00 -6°C° 0 mm 3 mps 728 mmHg 83%
    04:00 -6°C° 0 mm 3 mps 728 mmHg 83%
    05:00 -6°C° 0 mm 3 mps 728 mmHg 84%
    06:00 -6°C° 0 mm 3 mps 728 mmHg 83%
    07:00 -6°C° 0 mm 3 mps 728 mmHg 83%
    08:00 -7°C° 0 mm 3 mps 729 mmHg 83%
    09:00 -6°C° 0 mm 3 mps 729 mmHg 81%
    10:00 -7°C° 0 mm 4 mps 730 mmHg 79%
    11:00 -7°C° 0 mm 4 mps 730 mmHg 76%
    12:00 -5°C° 0 mm 4 mps 730 mmHg 75%
    13:00 -5°C° 0 mm 4 mps 730 mmHg 75%
    14:00 -4°C° 0 mm 4 mps 731 mmHg 74%
    15:00 -5°C° 0 mm 4 mps 731 mmHg 76%
    16:00 -5°C° 0 mm 4 mps 731 mmHg 79%
    17:00 -6°C° 0 mm 3 mps 732 mmHg 82%
    18:00 -7°C° 0 mm 4 mps 732 mmHg 83%
    19:00 -8°C° 0 mm 4 mps 733 mmHg 84%
    20:00 -8°C° 0 mm 4 mps 733 mmHg 85%
    21:00 -8°C° 0 mm 4 mps 733 mmHg 85%
    22:00 -9°C° 0 mm 4 mps 734 mmHg 85%
    23:00 -9°C° 0 mm 4 mps 734 mmHg 86%

    23 January, Tuesday

    Time Temperature Precipitation Wind Pressure Humidity
    00:00 -8°C° 0 mm 3 mps 734 mmHg 85%
    01:00 -8°C° 0 mm 3 mps 735 mmHg 85%
    02:00 -9°C° 0 mm 3 mps 735 mmHg 85%
    03:00 -9°C° 0 mm 3 mps 735 mmHg 85%
    04:00 -9°C° 0 mm 3 mps 736 mmHg 84%
    05:00 -9°C° 0 mm 3 mps 736 mmHg 84%
    06:00 -9°C° 0 mm 3 mps 737 mmHg 84%
    07:00 -10°C° 0 mm 3 mps 737 mmHg 85%
    08:00 -10°C° 0 mm 3 mps 738 mmHg 85%
    09:00 -9°C° 0 mm 3 mps 739 mmHg 81%
    10:00 -9°C° 0 mm 4 mps 739 mmHg 77%
    11:00 -9°C° 0 mm 4 mps 740 mmHg 73%
    12:00 -8°C° 0 mm 4 mps 740 mmHg 70%
    13:00 -7°C° 0 mm 4 mps 740 mmHg 67%
    14:00 -7°C° 0 mm 4 mps 741 mmHg 64%
    15:00 -6°C° 0 mm 3 mps 741 mmHg 67%
    16:00 -7°C° 0 mm 3 mps 742 mmHg 70%
    17:00 -8°C° 0 mm 3 mps 742 mmHg 74%
    18:00 -8°C° 0 mm 3 mps 743 mmHg 76%
    19:00 -8°C° 0 mm 2 mps 743 mmHg 77%
    20:00 -8°C° 0 mm 2 mps 744 mmHg 79%
    21:00 -8°C° 0 mm 2 mps 744 mmHg 79%
    22:00 -9°C° 0 mm 2 mps 744 mmHg 78%
    23:00 -8°C° 0 mm 1 mps 744 mmHg 78%

    24 January, Wednesday

    Time Temperature Precipitation Wind Pressure Humidity
    00:00 -8°C° 0 mm 1 mps 744 mmHg 76%
    01:00 -8°C° 0 mm 1 mps 744 mmHg 75%
    02:00 -8°C° 0 mm 1 mps 744 mmHg 73%
    03:00 -8°C° 0 mm 1 mps 744 mmHg 72%
    04:00 -8°C° 0 mm 1 mps 744 mmHg 71%
    05:00 -8°C° 0 mm 1 mps 744 mmHg 70%
    06:00 -8°C° 0 mm 1 mps 745 mmHg 70%
    07:00 -8°C° 0 mm 1 mps 745 mmHg 69%
    08:00 -8°C° 0 mm 1 mps 745 mmHg 69%
    09:00 -8°C° 0 mm 2 mps 745 mmHg 65%
    10:00 -7°C° 0 mm 2 mps 745 mmHg 62%
    11:00 -6°C° 0 mm 2 mps 745 mmHg 58%
    12:00 -6°C° 0 mm 2 mps 745 mmHg 57%
    13:00 -6°C° 0 mm 3 mps 745 mmHg 55%
    14:00 -5°C° 0 mm 3 mps 745 mmHg 53%
    15:00 -6°C° 0 mm 3 mps 745 mmHg 57%
    16:00 -6°C° 0 mm 2 mps 745 mmHg 62%
    17:00 -6°C° 0 mm 2 mps 745 mmHg 66%
    18:00 -7°C° 0 mm 2 mps 745 mmHg 66%
    19:00 -8°C° 0 mm 3 mps 745 mmHg 67%
    20:00 -8°C° 0 mm 3 mps 745 mmHg 67%
    21:00 -8°C° 0 mm 3 mps 745 mmHg 67%
    22:00 -9°C° 0 mm 3 mps 745 mmHg 66%
    23:00 -9°C° 0 mm 3 mps 745 mmHg 66%

    25 January, Thursday

    Time Temperature Precipitation Wind Pressure Humidity
    00:00 -9°C° 0 mm 3 mps 745 mmHg 66%
    01:00 -9°C° 0 mm 3 mps 745 mmHg 67%
    02:00 -9°C° 0 mm 3 mps 744 mmHg 67%
    03:00 -9°C° 0 mm 3 mps 744 mmHg 67%
    04:00 -9°C° 0 mm 3 mps 744 mmHg 68%
    05:00 -9°C° 0 mm 3 mps 744 mmHg 68%
    06:00 -9°C° 0 mm 3 mps 744 mmHg 68%
    07:00 -10°C° 0 mm 4 mps 744 mmHg 69%
    08:00 -10°C° 0 mm 4 mps 743 mmHg 69%
    09:00 -9°C° 0 mm 4 mps 743 mmHg 66%
    10:00 -8°C° 0 mm 5 mps 743 mmHg 63%
    11:00 -7°C° 0 mm 5 mps 743 mmHg 60%
    12:00 -7°C° 0 mm 5 mps 743 mmHg 59%
    13:00 -6°C° 0 mm 5 mps 743 mmHg 57%
    14:00 -5°C° 0 mm 6 mps 742 mmHg 56%
    15:00 -6°C° 0 mm 5 mps 742 mmHg 60%
    16:00 -6°C° 0 mm 5 mps 742 mmHg 64%
    17:00 -7°C° 0 mm 5 mps 741 mmHg 68%
    18:00 -7°C° 0 mm 5 mps 741 mmHg 69%
    19:00 -7°C° 0 mm 5 mps 741 mmHg 71%
    20:00 -8°C° 0 mm 5 mps 741 mmHg 73%
    21:00 -8°C° 0 mm 5 mps 741 mmHg 73%
    22:00 -8°C° 0 mm 5 mps 741 mmHg 74%
    23:00 -9°C° 0 mm 6 mps 741 mmHg 74%
    Show more